LOT15 LUKK-EPWA

Flight info

Callsign LOT15
Flight time N/A
Altitude 36000
Route NUNTA DCT BUZZE DCT KARIL DCT KENIN DCT ORTEB DCT KONZI DCT LOGDA
Aircraft B738/M-SDE2E3FGHIRWXY/LB1

Departure

Time 2026-04-28 14:39
Airport Chişinău International Airport (LUKK)

Arrival

Time N/A
Airport Warsaw Chopin Airport (EPWA)
Time Latitude Longitude Altitude Speed Heading
2026-04-28 14:21 46.93397 28.93331 317 ft 0 kts
2026-04-28 14:34 46.93402 28.93332 317 ft 1 kts
2026-04-28 14:34 46.93415 28.93337 316 ft 2 kts 32°
2026-04-28 14:35 46.93428 28.93379 316 ft 6 kts 88°
2026-04-28 14:35 46.93421 28.93473 313 ft 12 kts 97°
2026-04-28 14:35 46.93409 28.93626 309 ft 17 kts 97°
2026-04-28 14:35 46.93395 28.93793 303 ft 12 kts 99°
2026-04-28 14:36 46.93395 28.93938 299 ft 15 kts 95°
2026-04-28 14:36 46.93381 28.94102 296 ft 17 kts 97°
2026-04-28 14:36 46.93365 28.94276 296 ft 17 kts 97°
2026-04-28 14:36 46.93349 28.94456 294 ft 18 kts 98°
2026-04-28 14:37 46.93332 28.94646 294 ft 18 kts 97°
2026-04-28 14:37 46.93316 28.94825 288 ft 17 kts 103°
2026-04-28 14:37 46.93238 28.94966 285 ft 18 kts 149°
2026-04-28 14:37 46.93128 28.95054 282 ft 15 kts 152°
2026-04-28 14:38 46.93046 28.95089 280 ft 8 kts 186°
2026-04-28 14:38 46.93019 28.95033 283 ft 4 kts 266°
2026-04-28 14:38 46.93020 28.95010 283 ft 1 kts 275°
2026-04-28 14:38 46.93042 28.94741 290 ft 65 kts 277°
2026-04-28 14:39 46.93132 28.93694 310 ft 138 kts 276°
2026-04-28 14:39 46.93272 28.92068 650 ft 171 kts 278°
2026-04-28 14:39 46.93413 28.90401 1540 ft 164 kts 280°
2026-04-28 14:39 46.93536 28.88737 1880 ft 171 kts 281°
2026-04-28 14:40 46.93730 28.86965 2161 ft 180 kts 283°
2026-04-28 14:40 46.93861 28.85739 2322 ft 188 kts 282°
2026-04-28 14:40 46.94101 28.83066 2591 ft 212 kts 280°
2026-04-28 14:40 46.94286 28.80812 2847 ft 228 kts 280°
2026-04-28 14:41 46.94484 28.78451 3196 ft 239 kts 280°
2026-04-28 14:41 46.94694 28.75949 3577 ft 257 kts 279°
2026-04-28 14:41 46.94929 28.73386 4455 ft 258 kts 283°
2026-04-28 14:41 46.95345 28.70829 5390 ft 258 kts 288°
2026-04-28 14:42 46.95850 28.68339 6264 ft 260 kts 289°
2026-04-28 14:42 46.96357 28.65820 7107 ft 263 kts 287°
2026-04-28 14:42 46.96847 28.63246 8035 ft 261 kts 286°
2026-04-28 14:42 46.97304 28.60748 9000 ft 260 kts 285°
2026-04-28 14:43 46.97757 28.58200 10036 ft 256 kts 285°
2026-04-28 14:43 46.98200 28.55699 10729 ft 263 kts 285°
2026-04-28 14:43 46.98670 28.53032 11217 ft 277 kts 285°
2026-04-28 14:43 46.99167 28.50222 11656 ft 292 kts 285°
2026-04-28 14:44 46.99688 28.47292 12068 ft 307 kts 285°
2026-04-28 14:44 47.00240 28.44204 12602 ft 318 kts 285°
2026-04-28 14:44 47.00798 28.41072 13318 ft 323 kts 285°
2026-04-28 14:44 47.01364 28.37892 13994 ft 328 kts 285°
2026-04-28 14:45 47.01939 28.34661 14804 ft 329 kts 285°
2026-04-28 14:45 47.02999 28.28675 16091 ft 336 kts 285°
2026-04-28 14:45 47.03578 28.25383 16838 ft 337 kts 285°
2026-04-28 14:46 47.04165 28.22044 17558 ft 339 kts 285°
2026-04-28 14:46 47.04755 28.18696 18212 ft 342 kts 285°
2026-04-28 14:46 47.05345 28.15341 18943 ft 343 kts 285°
2026-04-28 14:46 47.05942 28.11949 19548 ft 347 kts 285°
2026-04-28 14:47 47.06549 28.08510 20207 ft 349 kts 285°
2026-04-28 14:47 47.07156 28.05073 20797 ft 352 kts 285°
2026-04-28 14:47 47.07773 28.01560 21405 ft 355 kts 285°
2026-04-28 14:47 47.08388 27.98044 21993 ft 357 kts 285°
2026-04-28 14:48 47.08998 27.94557 22642 ft 358 kts 285°
2026-04-28 14:48 47.09620 27.90990 23212 ft 360 kts 284°
2026-04-28 14:48 47.10245 27.87401 23746 ft 364 kts 285°
2026-04-28 14:48 47.10851 27.83817 24298 ft 366 kts 284°
2026-04-28 14:49 47.11412 27.80152 24864 ft 367 kts 283°
2026-04-28 14:49 47.11946 27.76478 25341 ft 371 kts 283°
2026-04-28 14:49 47.12476 27.72800 25905 ft 371 kts 283°
2026-04-28 14:49 47.13018 27.69068 26376 ft 374 kts 283°
2026-04-28 14:50 47.13566 27.65333 26894 ft 375 kts 283°
2026-04-28 14:50 47.14119 27.61597 27397 ft 376 kts 283°
2026-04-28 14:50 47.14682 27.57802 27813 ft 379 kts 283°
2026-04-28 14:50 47.15251 27.53978 28314 ft 379 kts 283°
2026-04-28 14:51 47.15820 27.50162 28736 ft 382 kts 283°
2026-04-28 14:51 47.16389 27.46345 29177 ft 383 kts 284°
2026-04-28 14:51 47.16961 27.42500 29593 ft 385 kts 283°
2026-04-28 14:51 47.17530 27.38671 29989 ft 386 kts 284°
2026-04-28 14:52 47.18101 27.34812 30432 ft 387 kts 283°
2026-04-28 14:52 47.18677 27.30915 30762 ft 390 kts 283°
2026-04-28 14:52 47.19249 27.27037 31183 ft 391 kts 283°
2026-04-28 14:52 47.19821 27.23140 31491 ft 393 kts 283°
2026-04-28 14:53 47.20405 27.19157 31768 ft 396 kts 283°
2026-04-28 14:53 47.20985 27.15194 32120 ft 397 kts 283°
2026-04-28 14:53 47.21561 27.11243 32592 ft 396 kts 283°
2026-04-28 14:53 47.22131 27.07325 33058 ft 393 kts 283°
2026-04-28 14:54 47.22704 27.03377 33475 ft 391 kts 283°
2026-04-28 14:54 47.23262 26.99521 33866 ft 390 kts 283°
2026-04-28 14:54 47.23831 26.95582 34211 ft 390 kts 283°
2026-04-28 14:54 47.24392 26.91691 34504 ft 390 kts 283°
2026-04-28 14:55 47.24955 26.87768 34790 ft 390 kts 283°
2026-04-28 14:55 47.25513 26.83874 35083 ft 389 kts 283°
2026-04-28 14:55 47.26067 26.79997 35305 ft 389 kts 283°
2026-04-28 14:55 47.26622 26.76112 35509 ft 390 kts 283°
2026-04-28 14:56 47.27184 26.72161 35671 ft 392 kts 283°
2026-04-28 14:56 47.27738 26.68260 35877 ft 392 kts 283°
2026-04-28 14:56 47.28291 26.64344 36098 ft 391 kts 283°
2026-04-28 14:57 47.29403 26.56450 36149 ft 394 kts 283°
2026-04-28 14:57 47.30505 26.48584 36151 ft 393 kts 283°
2026-04-28 14:58 47.31602 26.40715 36152 ft 392 kts 283°